COSMOS 1275 DEB, 12768

Orbit data source: Space-Track

COSMOS 1275 DEB, 12768 is space debris in LEO originally from a launch on Thu, 04 Jun 1981 UTC launched from the Plesetsk Missile And Space Complex (PKMTR). Debris objects in space refer to the collection of defunct objects orbiting the Earth. Examples of debris include non-operational satellites, rocket bodies, and fragments generated from explosions, collisions, or faulty payload assembly.

Loading next visibility...
Identifier
12768, 1981-053DM
Orbit
LEO
Country
Flag of CISCIS
Related business
Manufacturer
Unknown
Mission
Spacecraft
Bus & Motor
Unknown
Mass
Unknown
Launch date (UTC)
1981-06-04 (44 years ago)
Launch vehicle
Unknown
Launch site
Plesetsk Missile And Space Complex (PKMTR)
Object type
Payload
Rocket body
Debris
Shape & HBR
Unknown shape, 0.1 m
Radar Cross Section
Small (<0.1 m²)

Expand to show TLE details & history
Last TLE update: 7 hours ago

TLE from 7 hours ago
0 COSMOS 1275 DEB
1 12768U 81053DM  25289.13468748  .00000772  00000-0  63735-3 0  9991
2 12768  82.9266 285.4116 0051224  85.8276   7.3332 13.87222114225756
Epoch: 2025-10-16T03:13Z
TLE epoch observation values (Epoch: 2025-10-16T03:13:56.998Z)
Latitude
82.26351°
Longitude
-33.28491°
Altitude
914.754 km
Speed
7.42 km/s
True Right ascension
02h 40m 24s
True Declination
82° 13' 07"
Sunlit
Object was in daylight at epoch
Visualization orbit readout
Latitude
Unknown
Longitude
Unknown
Altitude
Unknown
Speed
Unknown
Apparent Right ascension
Unknown
Apparent Declination
Unknown
Sunlit
N/A
Visualization observer readout
Local Sidereal Time
05:16:11
Azimuth
Unknown
Elevation
Unknown
Doppler factor
Unknown
Orbital elements
Apogee altitude
972.978 km
Perigee altitude
898.051 km
Semi-major axis
7,313.651 km
Eccentricity
0.00512
Inclination
82.9266°
RAAN
285.4116°
Arg. of periapsis
85.8276°
True anomaly
7.4086°
Mean anomaly
7.3332°
Eccentric anomaly
7.37085°
Mean motion
3.4701 °/min
Orbital period
103.74 mins
BSTAR
0.00063735
Loading maneuver chart data...
Computing Atmospheric mass density...
Loading historical data...
Loading historical data...
Loading historical data...
Loading historical data...
Loading historical data...
Loading historical data...
Loading historical data...

Documentation

Showing up to 5 results
|